Wind_Gust
13 12 13 13 13 11 13 13 12 13 13 12 13 14 16 13 13 13 12 13 14 15 14 14 14 14 14 13 13 14 14 13 12 12 12 12 13 12 14 13 12 12
13 12 11 10 9 9 9 10 13 13 13 12 12 11 10 12 13 13 13 13 14 14 14 13 13 14 14 14 13 13 13 12 12 10 11 11 11 12 12 11 11 10
13 12 12 13 13 12 12 11 10 11 12 12 9 9 10 10 13 12 14 14 14 14 12 12 12 12 13 13 12 12 12 12 11 10 10 11 11 11 11 10 11 10
14 14 15 14 13 12 12 12 12 11 10 9 11 11 11 11 12 13 13 13 14 13 12 11 12 11 12 12 11 12 11 11 10 9 10 10 10 10 10 9 10 10
14 14 14 14 13 13 12 14 15 14 14 14 11 11 12 12 13 14 14 14 14 14 13 12 11 11 11 11 10 11 10 10 8 8 9 10 10 9 9 9 9 10
14 16 16 16 15 14 15 15 15 15 14 13 13 13 13 14 14 15 15 16 14 15 14 13 12 11 11 11 10 9 9 8 9 8 9 9 9 9 9 9 9 10
15 15 16 16 14 15 15 15 14 14 14 14 13 13 14 15 15 16 17 16 17 16 16 15 13 12 11 11 11 10 9 9 9 8 9 8 8 8 9 8 10 10
17 16 16 16 16 16 17 17 15 15 14 13 14 14 15 16 17 16 16 17 17 17 16 16 15 14 13 12 12 11 10 9 9 9 8 9 7 8 8 8 8 10
19 18 18 17 18 18 18 19 17 15 15 16 16 15 15 16 17 17 17 18 18 17 17 16 16 15 13 12 11 11 11 10 9 9 9 8 7 7 8 8 9 10
17 17 15 16 18 20 19 19 17 16 16 18 18 17 18 17 17 18 17 18 18 18 17 16 16 15 14 12 12 11 10 10 10 9 8 7 7 8 9 9 10 11
15 15 16 18 18 17 17 17 15 15 15 19 19 19 19 19 17 17 18 19 19 19 18 17 16 15 14 13 11 10 10 10 10 9 7 7 7 8 6 10 11 12
15 15 16 18 19 18 16 15 15 15 16 16 19 21 21 20 20 19 20 20 20 18 17 16 15 14 13 13 13 12 12 10 9 7 7 7 8 9 10 10 11 13
13 15 17 18 18 18 15 15 15 14 14 13 19 18 19 19 18 19 19 20 19 17 16 16 15 13 13 13 13 12 11 10 8 7 7 8 9 11 12 12 13 14
16 14 17 19 17 16 17 16 15 15 16 17 18 21 22 23 25 22 18 17 17 16 14 13 14 15 15 14 13 12 10 9 8 7 8 9 9 11 12 13 14 15
17 17 17 16 17 18 17 16 15 14 16 17 16 17 18 21 20 20 18 17 17 18 18 16 16 16 14 14 13 12 10 8 7 8 9 10 11 12 12 14 15 15
16 17 18 18 17 17 17 15 14 14 16 17 18 18 19 17 15 16 18 18 18 18 18 18 17 16 13 12 7 11 10 9 7 7 9 11 12 13 14 15 15 16
13 14 15 18 18 17 13 13 15 15 16 17 18 20 19 19 18 16 15 17 18 18 19 17 16 16 15 13 11 6 8 9 9 9 10 11 13 14 16 16 16 17
14 13 14 16 17 18 14 14 14 14 16 16 16 17 16 16 16 16 16 15 14 17 17 18 18 13 15 13 11 8 4 8 8 9 10 12 13 15 16 17 18 18
15 15 15 15 16 17 14 13 15 16 16 16 18 16 15 16 15 16 17 18 19 19 17 17 18 13 14 13 10 9 6 4 9 9 11 12 14 16 17 17 18 18
16 16 16 16 15 17 16 15 16 18 17 15 14 15 15 14 13 15 15 15 16 17 16 16 17 12 13 11 9 7 6 3 8 9 11 13 15 16 16 17 18 19
17 17 17 16 16 17 17 17 17 14 14 14 17 19 18 18 18 17 14 14 14 14 15 14 13 11 10 9 8 6 4 4 8 9 11 13 14 15 16 17 18 19
18 18 17 16 17 18 19 19 16 16 17 15 16 14 12 14 14 16 18 15 14 14 14 14 12 8 7 7 6 5 3 7 9 10 12 14 15 16 17 18 18 19
18 19 19 18 17 19 20 18 16 15 13 16 17 16 17 15 16 16 16 16 15 14 16 15 13 9 8 6 4 3 4 10 11 13 14 15 16 17 18 18 18 19
18 19 20 19 17 20 20 18 13 11 13 14 17 18 18 17 17 14 12 13 14 13 12 13 12 10 7 5 5 4 4 10 13 15 16 17 18 17 18 18 20 19
19 20 20 19 19 21 17 14 14 14 12 12 11 15 17 17 17 15 12 9 9 10 7 10 10 9 7 7 6 5 7 11 14 17 18 19 20 20 18 21 22 18
20 20 20 21 21 14 15 17 19 19 18 19 16 13 17 14 12 13 12 9 7 8 8 8 9 9 11 7 6 7 7 12 15 18 21 21 21 22 26 24 25 26
Wind_Speed
6 5 6 5 5 5 6 6 5 6 6 5 6 6 7 6 6 6 6 6 7 7 7 7 7 7 6 6 6 6 6 6 5 4 5 5 6 6 6 6 6 4
7 6 5 4 3 3 3 4 6 6 6 6 5 5 4 5 6 6 7 7 7 7 7 6 6 7 6 6 6 6 5 5 5 3 4 5 5 5 6 6 5 4
7 6 6 7 6 6 6 5 5 5 5 5 4 3 4 4 6 6 7 7 7 7 6 5 6 6 6 6 5 5 5 5 5 4 4 5 4 4 5 4 4 5
7 8 7 7 6 6 6 5 5 5 4 3 5 5 4 4 5 7 6 7 7 6 6 5 5 5 5 5 5 4 5 4 3 3 4 3 3 4 4 3 3 4
8 7 7 7 6 6 6 7 7 7 7 6 5 5 5 5 6 6 7 7 7 7 6 6 5 5 5 4 4 4 3 3 2 2 2 3 3 3 3 3 3 4
8 8 8 8 7 7 7 8 8 7 7 6 6 6 6 7 7 8 8 8 7 7 6 6 6 5 4 5 4 3 3 2 2 2 2 2 3 2 2 2 3 3
8 8 9 8 8 8 8 8 7 7 7 6 6 6 6 7 8 8 9 8 9 8 8 7 6 5 4 5 4 4 3 3 3 2 1 2 1 2 2 2 3 3
10 9 8 8 9 9 9 9 8 7 7 6 7 7 7 8 9 8 8 9 9 9 8 8 7 7 6 5 5 5 4 3 3 2 2 2 1 1 2 1 2 3
10 9 9 10 10 9 10 10 9 8 7 8 8 7 7 8 9 9 9 9 9 9 9 8 8 7 6 5 5 4 4 3 3 2 2 2 1 1 2 2 2 3
10 9 9 9 10 10 11 11 9 8 8 9 9 8 9 8 9 10 9 10 10 9 9 8 8 7 6 5 5 4 3 3 3 2 2 1 1 1 2 2 3 4
9 8 9 10 11 9 10 9 7 7 7 10 9 10 10 9 8 9 9 10 9 10 9 8 8 7 6 6 5 4 4 4 3 2 1 1 1 1 2 3 4 5
8 8 9 10 11 10 9 8 7 8 8 7 7 9 10 10 11 9 10 11 10 10 9 8 7 7 6 5 5 5 5 4 3 1 1 1 1 2 3 4 4 5
6 7 9 10 10 9 8 7 7 7 7 6 7 4 2 4 5 9 10 11 10 9 8 8 7 6 6 6 6 5 4 3 2 1 1 1 3 4 4 5 6 6
8 7 9 10 9 8 8 8 8 7 8 8 9 11 11 12 14 13 9 9 9 9 7 6 7 7 7 6 5 4 3 3 2 1 2 3 3 4 5 6 6 7
8 8 9 9 9 9 9 8 8 7 8 9 8 9 9 12 12 12 10 9 9 10 9 8 8 7 6 6 6 5 3 2 1 1 2 3 4 5 5 6 7 7
7 7 8 10 9 9 9 7 7 7 8 9 9 10 10 10 9 8 9 9 9 9 10 9 8 6 9 11 7 4 3 2 1 1 2 4 5 6 6 7 7 8
5 6 7 8 9 9 7 6 7 7 8 9 10 11 10 10 9 9 6 5 7 9 10 8 7 7 13 12 10 6 3 3 2 2 3 4 5 6 7 8 7 8
6 6 6 7 8 10 8 7 6 7 8 9 8 9 8 8 8 8 8 8 7 9 9 8 9 11 13 12 10 7 3 2 1 2 3 4 5 6 7 7 8 8
7 7 7 7 7 8 7 6 7 8 8 8 10 9 8 9 8 8 9 9 10 10 9 9 9 11 12 11 9 8 5 1 2 2 3 5 6 7 7 8 8 8
8 8 8 8 7 8 8 7 8 9 9 7 7 7 7 7 8 8 8 8 9 9 8 8 9 10 11 10 8 7 5 1 2 2 3 5 6 7 7 8 8 8
8 8 8 8 7 8 9 9 9 7 7 7 8 9 9 9 10 10 7 8 8 8 8 7 6 9 9 8 7 6 4 3 2 2 3 5 5 6 7 8 9 8
9 9 9 8 8 9 10 10 8 8 9 7 7 6 5 7 7 8 9 9 8 8 8 8 6 7 7 7 6 5 3 1 3 3 4 5 6 7 8 8 8 9
9 10 10 9 8 9 10 10 8 7 6 7 8 8 9 8 8 8 8 9 8 8 9 8 6 6 7 6 4 3 2 3 4 5 5 6 7 8 8 8 8 9
9 10 10 10 8 10 11 9 6 5 6 6 8 9 9 9 8 7 7 7 8 7 6 7 6 7 6 5 4 3 2 3 5 6 7 8 8 8 8 8 9 12
10 10 10 10 9 11 9 6 7 7 6 6 6 6 8 8 9 7 6 5 4 5 6 6 5 6 5 5 4 4 3 4 5 7 8 9 9 9 8 9 10 11
10 11 11 9 11 7 6 8 9 9 9 9 9 7 7 7 6 7 7 4 3 4 3 3 4 4 6 6 5 5 4 4 6 7 9 10 10 9 11 11 12 13
Wind_Direction
194 192 194 194 201 194 175 178 184 187 192 185 186 181 177 166 160 168 157 148 139 134 135 135 137 133 128 120 112 106 101 102 98 98 95 90 84 80 73 67 60 49
201 201 204 200 199 190 195 192 181 190 191 191 196 184 167 154 163 162 156 148 141 136 137 138 137 133 130 122 118 110 105 101 98 98 99 92 89 85 75 70 69 61
194 199 206 206 203 196 195 196 197 198 191 198 182 179 169 167 155 161 156 150 143 139 139 138 136 131 124 120 119 113 108 110 105 106 103 92 81 75 68 59 57 53
200 202 205 208 207 199 191 191 199 198 198 188 196 187 176 169 160 155 151 149 144 143 140 140 134 129 121 117 115 105 101 97 95 107 113 107 92 81 72 62 54 48
204 204 210 214 210 203 190 199 199 196 194 197 183 175 176 168 167 158 156 155 149 145 146 143 137 130 127 119 115 110 106 102 103 103 100 107 98 85 76 60 55 50
213 210 209 210 209 201 203 209 207 198 196 191 191 182 184 174 174 167 161 156 156 150 149 148 143 135 132 124 123 119 117 111 109 113 98 93 101 89 83 71 53 36
219 212 213 210 209 208 213 214 210 202 200 196 177 190 179 177 177 171 167 162 157 157 158 157 149 145 143 142 143 138 130 119 128 127 111 97 86 105 95 57 33 8
219 218 216 212 212 211 214 214 209 206 196 182 193 189 182 182 182 171 168 164 163 164 164 159 156 152 154 159 158 151 145 142 149 152 140 126 126 67 65 55 17 349
216 215 212 210 211 216 218 218 210 202 189 190 193 182 184 185 181 173 171 170 169 168 164 160 160 156 160 165 162 164 154 151 156 157 151 145 133 63 358 13 335 338
223 225 217 217 221 221 217 216 212 203 190 196 194 180 180 184 178 176 172 173 172 170 168 163 162 158 162 168 165 161 157 148 146 139 129 102 31 349 345 332 332 322
240 233 229 226 228 233 231 224 215 212 200 203 190 184 182 172 175 176 176 177 173 173 171 168 165 163 162 160 149 141 133 131 135 124 107 47 351 335 319 315 314 310
256 250 238 236 236 236 234 227 213 212 207 208 205 194 179 176 174 176 177 179 178 176 172 166 162 164 163 147 132 128 124 121 115 109 78 348 326 309 309 305 298 300
250 260 265 251 240 236 233 227 222 213 204 167 99 88 165 196 206 179 179 179 174 166 166 162 154 142 127 127 130 126 118 110 99 62 352 336 314 307 302 297 293 292
258 237 239 249 245 237 232 225 217 200 186 173 177 189 178 177 179 189 179 168 158 161 151 140 133 131 129 125 121 116 109 102 78 4 317 301 293 291 290 287 285 282
286 276 262 248 239 239 233 224 213 198 186 187 187 184 181 183 192 175 157 155 152 153 148 142 138 131 131 132 126 113 105 95 62 5 320 304 297 291 282 278 277 274
295 285 275 265 252 237 234 222 208 196 192 189 187 187 187 184 174 173 160 158 154 146 139 134 127 116 103 91 84 101 106 87 72 6 338 319 309 303 292 283 278 275
296 287 276 266 260 255 236 213 204 195 195 196 194 190 186 179 174 163 157 136 127 131 127 118 114 117 122 118 114 101 96 95 44 2 335 316 305 301 297 294 287 285
303 292 274 263 257 256 240 213 198 193 194 198 190 183 180 168 164 158 146 139 125 122 121 121 118 127 124 122 120 118 86 78 70 6 325 310 305 300 297 295 294 292
299 292 282 268 255 252 241 197 198 198 197 192 192 179 153 159 150 139 137 136 134 130 123 121 118 128 123 124 121 120 125 210 59 7 323 319 308 300 297 296 295 293
291 288 284 276 264 256 244 216 202 202 198 188 168 152 149 129 127 126 125 128 124 122 120 116 120 132 126 125 118 120 121 200 56 353 319 307 304 302 296 295 291 290
287 287 283 280 268 257 242 230 206 197 184 172 165 161 153 149 141 133 124 118 116 114 117 117 116 131 120 122 120 121 134 223 44 336 320 314 304 299 295 290 288 284
291 289 281 273 266 257 241 230 206 189 178 156 141 131 120 113 111 118 126 124 125 122 119 121 135 139 131 130 133 122 197 290 7 337 322 314 307 304 299 291 285 283
282 284 284 278 262 255 239 225 197 175 151 146 141 142 143 137 130 127 122 123 126 126 129 138 142 158 156 151 139 155 238 358 342 327 319 311 306 304 299 295 287 287
273 274 274 271 255 250 236 219 178 127 140 155 151 145 136 130 118 112 120 125 126 129 137 139 142 146 163 162 187 176 279 335 329 319 314 311 313 310 303 295 288 289
268 267 263 259 249 239 221 160 116 115 93 78 75 90 109 111 116 113 102 87 96 114 125 134 139 150 170 192 213 226 245 317 318 322 317 316 315 310 306 299 299 295
261 259 253 248 243 203 132 122 119 112 107 97 89 90 102 101 100 107 108 100 93 123 134 141 151 167 173 199 220 243 242 299 316 315 316 315 311 310 308 306 304 304